Content
SEND FEEDBACK

Daily
Averages
Monthly
Summary
Canada

BIBLE HILL, NOVA SCOTIA


Home > North America > Canada > Nova Scotia
Elevation: 131 feet     Latitude: 45 22N     Longitude: 063 16W

WEATHER
 
SELECT A DAY
Number of Records: 96,918;   Date Range: 6/19/04 - 7/28/14
 
SHARE

PRINT THIS DATA

[ ← Previous Day ]
WEATHER ALMANAC - SEPTEMBER 1, 2013
[ Next Day → ]
[ °C ]   °F
Weather ElementAverageHighLow
Temperature63.5 °F67.5 °F (3:00 pm)60.6 °F (4:00 am)
Dewpoint61.7 °F65 °F (3:00 pm)58.8 °F (1:00 am)
Humidity93.6 %96 % (4:00 am)87 % (1:00 am)
Barometer29.87 in29.97 in (11:00 pm)29.84 in (11:00 am)
Wind Speed5.2 mph10.4 mph (11:00 am)
Weather ElementAverage
Wind DirectionSSE (171.2 °)

Weather ElementTotal
Precipitation1.13 in
Heating Degree Days1 (Base 65)
Growing Degree Days14.1 (Base 50)
Averaged from 26 records on September 1, 2013
WEATHER CONDITIONS BREAKOUT
WIND DIRECTION BREAKOUT
WEATHER BY HOUR - SEPTEMBER 1, 2013
[ °C ]   °F
Local TimeTemperatureDewpointHumidityBarometerVisibilityWind DirectionWind SpeedGust SpeedPrecipitationEventsConditions
1:00 AM62.6 °F58.8 °F87 %29.90 inESE (110°)4.6 mph
2:00 AM61.9 °F59.5 °F92 %29.89 inSouth (170°)6.9 mph
3:00 AM61.0 °F60.0 °F93 %29.88 inSSE (150°)5.8 mph
3:00 AM61.2 °F59.5 °F94 %29.88 inSSE (150°)5.8 mph
4:00 AM60.6 °F59.4 °F96 %29.86 inSouth (180°)4.6 mph
5:00 AM60.8 °F59.7 °F96 %29.85 inSSE (160°)3.5 mph
6:00 AM61.2 °F60.1 °F96 %29.85 inSSE (160°)3.5 mph
7:00 AM61.3 °F60.3 °F96 %29.86 inESE (120°)4.6 mph0.44 in
8:00 AM61.7 °F60.6 °F96 %29.86 inSouth (180°)4.6 mph0.07 in
9:00 AM62.0 °F61.0 °F94 %29.85 inSSE (160°)8.1 mph
9:00 AM61.9 °F60.8 °F96 %29.85 inSSE (160°)8.1 mph0.02 in
10:00 AM63.3 °F61.7 °F94 %29.86 inSouth (180°)5.8 mph0.04 in
11:00 AM63.3 °F61.9 °F95 %29.84 inSSE (160°)10.4 mph0.05 in
12:00 PM64.4 °F62.6 °F94 %29.84 inSouth (180°)4.6 mph
1:00 PM64.4 °F63.0 °F95 %29.85 inWest (260°)3.5 mph0.23 in
2:00 PM66.9 °F64.9 °F93 %29.85 inWSW (250°)3.5 mph0.07 in
3:00 PM67.0 °F65.0 °F89 %29.85 inSW (220°)5.8 mph
3:00 PM67.5 °F64.6 °F90 %29.85 inSW (220°)5.8 mph
4:00 PM66.4 °F64.2 °F93 %29.86 inSSW (200°)3.5 mph
5:00 PM66.4 °F64.6 °F94 %29.86 inWSW (250°)1.2 mph
6:00 PM66.0 °F64.2 °F94 %29.87 inWest (270°)3.5 mph0.13 in
7:00 PM64.0 °F62.4 °F94 %29.90 inWSW (250°)5.8 mph
8:00 PM63.5 °F62.1 °F95 %29.91 inWest (270°)2.3 mph0.07 in
9:00 PM64.8 °F63.0 °F94 %29.95 inNorth (10°)6.9 mph0.01 in
10:00 PM63.1 °F60.8 °F92 %29.95 inNNE (20°)6.9 mph
11:00 PM62.6 °F60.1 °F91 %29.97 inNorth (10°)4.6 mph
Hourly data recorded from CZDB, located miles away from Bible Hill, Nova Scotia







STORIES FROM OUR PARTNERS